Погода в Елизаветградке

Украина / Кировоградская область     48°47′48″N   32°24′15″E
темп.,
°C
ветер,
м/с
пор.,
м/с
влажн.,
%
обл.,
%
осадки,
мм/ч
давл.,
гПа
погр.,
м
18 мая, вт
вт1800:00+14ююз22925 0.0 100531
03:00+13ю3392100 0.0 100442
06:00+13ю3697100 0.6 1003182
09:00+17ю687979 0.6 1004604
12:00+20ю68605 0.4 10021400
15:00+18ю796983 2.1 10011164
18:00+16ю61083100 1.4 1000884
21:00+13ююв5119123 1.9 1000337
19 мая, ср
ср1900:00+11ю410940 0.4 1000239
03:00+10ююв499761 0.7 1001198
06:00+10ююв499695 0.1 1002278
09:00+14ю568033 0.1 1002689
12:00+17ю676596 0.4 10021395
15:00+16юз337081 0.8 1003859
18:00+15зсз457435 0.1 1003514
21:00+13зсз71188100 0.4 1005448
20 мая, чт
чт2000:00+11зсз61091100 0.0 1006505
03:00+11з6108999 0.0 1008489
06:00+10з512912 0.0 1008397
09:00+15з696658 0.0 1009821
12:00+18з465597 0.0 10101690
15:00+18зюз2461100 0.3 1009534
18:00+13з3592100 1.3 1011190
21:00+12юз1294100 2.9 101245
21 мая, пт
пт2100:00+11всв2597100 5.3 1011244
03:00+12всв51097100 7.6 1011344
06:00+12св61196100 0.6 1011451
09:00+13св61091100 0.6 1010643
12:00+15св5890100 0.1 1010606
15:00+16ссв678598 0.4 1010629
18:00+14с71093100 0.1 1011453
21:00+13с61095100 0.1 1012485
22 мая, сб
сб2200:00+12ссв61195100 0.0 1012396
03:00+12с61096100 0.0 1012432
06:00+11с5994100 0.0 1013364
09:00+14с7118799 0.0 1013549
12:00+18ссв6875100 0.0 1013816
15:00+19ссв556999 0.1 10131124
18:00+18ссв457594 0.0 1014946
21:00+15ссв358867 0.1 1014120